Location: Newark
(45.0667°N, 8.1000°E)
Time: 05:01:33
(UTC+00:00)

Falcon 9 debris - Visible Passes

Search period start: 24 July 2019 00:00
Search period end: 03 August 2019 00:00
Orbit: 431 x 439 km, 53.0° (Epoch: 23 July)

Date Brightness Start Highest point End Pass type
(mag) Time Alt. Az. Time Alt. Az. Time Alt. Az.
24 Jul 5.5 01:01:00 11° WNW 01:03:43 23° N 01:06:32 10° NE visible
24 Jul 5.5 02:38:37 10° NW 02:41:33 25° NNE 02:44:29 10° ENE visible
24 Jul 5.6 22:46:29 16° NE 22:46:29 16° NE 22:47:20 10° NE visible
25 Jul 5.3 00:19:44 18° NW 00:21:18 25° NNW 00:24:14 10° NE visible
25 Jul 5.6 01:56:18 10° NW 01:59:07 23° N 02:01:56 10° ENE visible
25 Jul 6.0 22:05:03 10° ENE 22:05:03 10° ENE 22:05:03 10° ENE visible
25 Jul 5.1 23:38:16 27° NW 23:38:54 29° NNW 23:41:58 10° NE visible
26 Jul 5.7 01:13:57 10° NW 01:16:41 22° N 01:19:26 10° ENE visible
26 Jul 4.4 02:51:02 10° NW 02:54:21 43° NNE 02:57:39 10° E visible
26 Jul 4.7 22:56:18 34° NNW 22:56:30 35° NNW 22:59:43 10° NE visible
27 Jul 5.7 00:31:32 10° NW 00:34:15 21° N 00:36:58 10° NE visible
27 Jul 4.9 02:08:48 10° NW 02:12:00 34° NNE 02:15:11 10° E visible
27 Jul 3.8 20:34:05 10° SSW 20:37:11 31° SE 20:40:18 10° ENE visible
27 Jul 4.3 22:10:49 10° W 22:14:09 44° NNW 22:17:29 10° NE visible
27 Jul 5.7 23:49:03 10° WNW 23:51:48 22° N 23:54:34 10° NE visible
28 Jul 5.2 01:26:33 10° NW 01:29:37 28° NNE 01:32:39 10° ENE visible
28 Jul 3.0 03:03:27 10° WNW 03:06:54 72° SW 03:10:19 10° SE visible
28 Jul 4.4 19:52:19 10° S 19:55:01 22° SE 19:57:44 10° E visible
28 Jul 3.7 21:28:24 10° WSW 21:31:49 59° NNW 21:35:14 10° NE visible
28 Jul 5.6 23:06:32 10° WNW 23:09:22 23° N 23:12:12 10° NE visible
29 Jul 5.5 00:44:16 10° NW 00:47:12 25° NNE 00:50:07 10° ENE visible
29 Jul 3.2 02:21:11 10° NW 02:24:38 79° NNE 02:28:04 10° ESE visible
29 Jul 3.1 20:46:04 10° WSW 20:49:31 82° NNW 20:52:59 10° NE visible
29 Jul 5.4 22:23:59 10° WNW 22:26:56 25° NNW 22:29:53 10° NE visible
30 Jul 5.6 00:01:56 10° NW 00:04:46 23° N 00:07:34 10° ENE visible
30 Jul 3.7 01:38:55 10° NW 01:42:20 56° NNE 01:45:43 10° ESE visible
30 Jul 4.3 03:16:23 10° W 03:19:08 22° SW 03:21:52 10° S visible
30 Jul 3.0 20:03:49 10° SW 20:07:14 69° SE 20:10:41 10° ENE visible
30 Jul 5.2 21:41:27 10° W 21:44:32 29° NNW 21:47:36 10° NE visible
30 Jul 5.7 23:19:34 10° NW 23:22:19 21° N 23:25:03 10° ENE visible
31 Jul 4.3 00:56:40 10° NW 00:59:59 42° NNE 01:03:17 10° E visible
31 Jul 3.7 02:33:50 10° WNW 02:36:58 33° SW 02:40:05 10° SSE visible
31 Jul 4.8 20:58:55 10° W 21:02:08 35° NNW 21:05:21 10° NE visible
31 Jul 5.7 22:37:08 10° NW 22:39:52 21° N 22:42:36 10° NE visible
01 Aug 5.2 00:14:26 10° NW 00:16:21 25° NNW 00:16:21 25° NNW visible
01 Aug 4.3 20:16:25 10° W 20:19:45 45° NNW 20:23:06 10° NE visible
01 Aug 5.7 21:54:39 10° WNW 21:57:24 22° N 22:00:10 10° NE visible
01 Aug 5.4 23:32:09 10° NW 23:34:23 25° N 23:34:23 25° N visible
02 Aug 3.8 19:33:59 10° WSW 19:37:24 60° NNW 19:40:51 10° NE visible
02 Aug 5.6 21:12:07 10° WNW 21:14:58 23° N 21:17:48 10° NE visible
02 Aug 5.3 22:49:52 10° NW 22:52:47 25° NNE 22:52:54 25° NNE visible
